Tracking 17154 objects as of 1-August-2015
HD Live streaming from Space Station

BKA 2

Track BKA 2 now!
10-day predictions
BKA 2 is classified as:


NORAD ID: 38708
Int'l Code: 2012-039B
Perigee: 512.3 km
Apogee: 514.8 km
Inclination: 97.4 °
Period: 94.7 minutes
Semi major axis: 6884 km
RCS: 1.9657 m2 (large)
Launch date: July 22, 2012
Source: (BELA)

The BKA satellite is a Belarusian satellite analogue of the Canopus-B, a satellite designed for remote sensing of the Earth. It weighs about 400 kilograms and it is to work on a circular orbit at a height of 510 km.
Your satellite tracking list
Your tracking list is empty





NASA's NSSDC Master Catalog

Two Line Element Set (TLE):
1 38708U 12039B   15213.10033128  .00000986  00000-0  49206-4 0  9999
2 38708 097.4266 126.1391 0001864 080.0316 032.2629 15.19812075167784

Source of the keplerian elements: AFSPC

N2YO: 247